Location: Blanot
(47.1713°N, 4.2340°E)
Time: 10:53:50
(UTC+00:00)

Cosmos 2061 Rocket - Pass Details

Date: 14 July 2020
Orbit: 965 x 1014 km, 82.9° (Epoch: 05 August)

Event Time Altitude Azimuth Distance (km) Brightness Sun altitude
Exits shadow 01:41:57 24° 193° (SSW) 1,929 5.0 -16.6°
Maximum altitude 01:46:00 82° 279° (W) 1,009 4.0 -16.3°
Drops below altitude 10° 01:52:20 10° 7° (N) 2,750 7.4 -15.8°
Sets 01:54:51 0° 9° (N) 3,695 8.4 -15.6°
